[Date Prev][Date Next][Thread Prev][Thread Next] - [Date Index][Thread Index][Author Index]
2 Line ISS Keps 4-21
- Subject: [sarex] 2 Line ISS Keps 4-21
- From: "Dave Larsen PhD" <doc@xxxxxxxxxxx>
- Date: Wed, 20 Apr 2005 19:50:55 -0700
ISS
1 25544U 98067A 05111.01644676 .00017830 00000-0 14136-3 0 2925
2 25544 051.6453 193.5855 0007479 033.3127 323.7162 15.71357475366686
----
Via the sarex mailing list at AMSAT.ORG courtesy of AMSAT-NA.
To unsubscribe, send "unsubscribe sarex" to Majordomo@amsat.org
AMSAT Home